Location: Marsån
(66.4167°N, 22.2833°E)
Time: 10:53:33
(UTC+00:00)

Cosmos 2219 Rocket - Pass Details

Date: 24 February 2024
Orbit: 829 x 844 km, 71.0° (Epoch: 15 April)

Event Time Altitude Azimuth Distance (km) Brightness Sun altitude
Rises 17:42:42 0° 305° (NW) 3,395 6.6 -14.5°
Reaches altitude 10° 17:45:08 10° 306° (NW) 2,456 5.7 -14.7°
Maximum altitude 17:50:47 89° 221° (SW) 842 2.2 -15.3°
Enters shadow 17:54:41 21° 129° (SE) 1,800 3.4 -15.7°
